Find Molniya-3

NORAD ID: 11057 Int'l Des: 1978-095 Owner: NPOPM/MSVYAZ Country: SU operational
MEOELLIPTICALHEO_ELLIPTICALMOLNIYA_TYPE

当前视图

正在加载3D地球...

About Molniya-3

Molniya-3 (NORAD 11057) is a satellite launched Oct 13, 1978 by NPOPM/MSVYAZ of SU. It operates in MEO, ELLIPTICAL, HEO_ELLIPTICAL, MOLNIYA_TYPE orbit with a mass of 1750.00 kg.

即将过境

Passes for default location (London). Set your location on the main map for personalized predictions.

高度历史

Loading altitude history...

两行轨道根数

1 11057U 78095A 26195.03383875 .00000093 00000-0 20834-2 0 9994
2 11057 63.7056 238.6635 5556658 312.5693 12.3658 4.09914200444708
Epoch: Jul 14, 2026 • Age: 9 hours

当前状态

高度 18612.8 km
远地点 / 近地点 N/A
速度 2.78 km/s
星下点 31.46°N, 40.47°W
发射日期 Oct 13, 1978
运行时间 47.7 years
类型 other

技术详情

分类 Payload
质量 1750.00 kg
干质量 1700.00 kg
总质量 1750.00 kg
长度 3.60 m
直径 1.60 m
跨度 8.10 m
形状 Cyl + 6 Pan
制造商 NPOPM
平台类型 Molniya-3
阶段状态 In Orbit
所有者/国家 NPOPM/MSVYAZ/SU

Most Searched